Regional Weather Roundup
Issued by NWS Kansas City/Pleasant Hill, MO

Home | Current Version | Previous Version | Graphics & Text | Print | Product List | Glossary Off
Versions: 1 2 3 4 5 6 7 8 9 10 11 12 13 14 15 16 17 18 19 20 21 22 23 24 25 26 27 28 29 30 31 32 33 34 35 36 37 38 39 40 41 42 43 44 45 46 47 48 49 50

000
ASUS43 KEAX 230610
RWREAX

WEATHER ROUNDUP FOR EASTERN KANSAS AND NORTHWEST MISSOURI
NATIONAL WEATHER SERVICE KANSAS CITY/PLEASANT HILL MO
100 AM CDT WED APR 23 2014

KSZ040-057-103>105-MOZ028-029-037-043-230700-
...KANSAS CITY METROPOLITAN AREA...

CITY           SKY/WX    TMP DP  RH WIND       PRES   REMARKS
K.C. INTL      MOCLDY    58  33  39 E12       30.00F
6HR MIN TEMP:  56; 6HR MAX TEMP:  66;

K.C. DOWNTOWN  FAIR      58  35  42 E6        29.99F
6HR MIN TEMP:  57; 6HR MAX TEMP:  68;

LEES SUMMIT    FAIR      55  35  47 E5        30.01S
6HR MIN TEMP:  53; 6HR MAX TEMP:  65;

OLATHE - IXD   FAIR      54  35  48 E5        30.00F
6HR MIN TEMP:  54; 6HR MAX TEMP:  68;

OLATHE - OJC   MOCLDY    54  35  48 E7        29.99S
6HR MIN TEMP:  54; 6HR MAX TEMP:  67;

LAWRENCE       FAIR      51  38  60 SE5       29.99F

$$

MOZ001>008-011>017-020>025-030>033-038>040-044>046-053-054-230700-
...NORTHERN AND CENTRAL MISSOURI...

CITY           SKY/WX    TMP DP  RH WIND       PRES   REMARKS
ST. JOSEPH     FAIR      56  35  45 SE12      30.00F
6HR MIN TEMP:  56; 6HR MAX TEMP:  66;

MOSBY          MOCLDY    46  43  87 CALM      30.01F
WHITEMAN AFB   FAIR      51  30  44 E3        30.02S
6HR MIN TEMP:  50; 6HR MAX TEMP:  64;

CLINTON        FAIR      46  41  81 E3        30.02S
SEDALIA        FAIR      52  37  56 E5        30.04R
6HR MIN TEMP:  51; 6HR MAX TEMP:  67;

WARSAW         NOT AVBL
MARSHALL         N/A     54  39  58 E6        30.03F
CHILLICOTHE      N/A     52  35  52 CALM      30.05R
6HR MIN TEMP:  50; 6HR MAX TEMP:  66;

MOBERLY        FAIR      48  36  61 E5        30.05S
KIRKSVILLE     FAIR      49  33  54 NE5       30.06R
6HR MIN TEMP:  45; 6HR MAX TEMP:  62;


$$

MOZ041-047>049-056>058-063>065-088>090-097-230700-
...EASTERN AND SOUTHERN MISSOURI...

CITY           SKY/WX    TMP DP  RH WIND       PRES   REMARKS
ST. LOUIS INTL FAIR      52  37  56 CALM      30.04R
6HR MIN TEMP:  52; 6HR MAX TEMP:  66;

SPIRIT OF STL  FAIR      43  39  86 CALM      30.03R
COLUMBIA       FAIR      50  35  56 NE8       30.04S
JEFFERSON CITY FAIR      45  38  76 CALM      30.03F
MEXICO         FAIR      43  37  81 CALM      30.04S
HANNIBAL       FAIR      52  25  35 N3        30.05R
ROLLA          FAIR      49  33  54 NE7       30.02R
LEBANON        FAIR      52  32  46 E7        30.02S
OSAGE BEACH    FAIR      46  34  61 CALM      30.04S
SPRINGFIELD    FAIR      46  37  71 E6        30.00F
BRANSON        FAIR      50  39  66 CALM      30.02S
NEVADA         FAIR      50  37  62 E8        30.00F
JOPLIN         FAIR      52  38  58 E5        29.99F
WEST PLAINS    FAIR      49  32  52 E3        30.02R

$$

IAZ060-094-KSZ022-034>040-054-083-096-NEZ052-066-093-230700-
...KANSAS...SOUTHEAST NEBRASKA AND IOWA...

CITY           SKY/WX    TMP DP  RH WIND       PRES   REMARKS
TOPEKA         FAIR      53  37  54 E5        29.98F
6HR MIN TEMP:  53; 6HR MAX TEMP:  71;

MANHATTAN      FAIR      53  36  52 CALM      29.94F
EMPORIA        MOCLDY    54  36  50 SE12      29.96F
CHANUTE        FAIR      49  39  68 SE3       29.99S
WICHITA        FAIR      59  35  40 SE13      29.92F
OMAHA          FAIR      58  33  39 SE16      29.96F
LINCOLN        CLOUDY    61  33  35 SE15      29.96R
FALLS CITY     FAIR      52  36  54 SE6       29.96F
LAMONI         CLOUDY    54  35  48 E7        30.03S
DES MOINES     MOCLDY    55  32  41 E9        30.05S

$$




USA.gov is the U.S. government's official web portal to all federal, state and local government web resources and services.